IRIDIUM 12 [-]

Last updated on Aug. 28, 2018, 2:42 p.m. UTC

1 24837U 97030B   18240.18240253  .04099930 -17375-5  96094-3 0  9997
2 24837  86.3974 166.5591 0247471 141.7095 220.2052 15.83763043109764

Satellite is not in orbit.